Regional Weather Roundup
Issued by NWS

Home | Current Version | Previous Version | Text Only | Print | Product List | Glossary Off
Versions: 1 2 3 4 5 6 7 8 9 10 11 12 13 14 15 16 17 18 19 20 21 22 23 24 25 26 27 28 29 30 31 32 33 34 35 36 37 38 39 40 41 42 43 44 45 46 47 48 49 50

636
ASUS43 KFSD 121510
RWRSD

WEATHER ROUNDUP FOR SOUTH DAKOTA
NATIONAL WEATHER SERVICE SIOUX FALLS SD
900 AM CST FRI FEB 12 2016

NOTE: "FAIR" INDICATES FEW OR NO CLOUDS BELOW 12,000 FEET WITH NO
SIGNIFICANT WEATHER AND/OR OBSTRUCTIONS TO VISIBILITY.


SDZ001>005-009-010-012>017-121600-
NORTHWEST AND NORTH CENTRAL SOUTH DAKOTA

CITY           SKY/WX    TMP DP  RH WIND       PRES   REMARKS
BUFFALO          N/A     22  20  92 NE9       30.34R WCI  12
FAITH            N/A     20  13  74 NE12      30.44R WCI   8
MOBRIDGE       CLOUDY    16  10  77 N9        30.48R HAZE    WCI   4
$$

SDZ012>016-024>037-041>051-057-063-072>074-121600-
SOUTHWEST AND SOUTH CENTRAL SOUTH DAKOTA

CITY           SKY/WX    TMP DP  RH WIND       PRES   REMARKS
RAPID CTY ARPT CLOUDY    28  26  92 NE8       30.38R FOG     WCI  20
PIERRE         CLOUDY    21  14  74 NE10      30.48R WCI  10
CUSTER         CLOUDY    25  21  85 MISG      30.27R
ELLSWORTH AFB  LGT SNOW  28  27  97 NE7       30.37  FOG     WCI  21
PHILIP         CLOUDY    25  20  81 NE9       30.45R WCI  15
PINE RIDGE     CLOUDY    30  27  88 E5        30.38R FOG     WCI  25
SPEARFISH        N/A     28  28 100 NE7       30.36R WCI  21
WINNER         CLOUDY    22  15  75 NE12      30.46R WCI  10
$$

SDZ004>011-016>023-039-040-121600-
NORTHEAST SOUTH DAKOTA

CITY           SKY/WX    TMP DP  RH WIND       PRES   REMARKS
ABERDEEN       CLOUDY     8  -3  61 N16       30.55R WCI -10
WATERTOWN      CLOUDY     5  -4  66 N15       30.45R WCI -13
BROOKINGS      CLOUDY     8   0  69 N14       30.45R WCI  -8
SISSETON         N/A      1  -6  72 N20       30.53R WCI -20
$$

SDZ017-020-022-023-036>040-048>070-121600-
SOUTHEAST SOUTH DAKOTA

CITY           SKY/WX    TMP DP  RH WIND       PRES   REMARKS
SIOUX FALLS    CLOUDY    12   6  77 N13       30.45R WCI  -3
HURON          FLURRIES  12   6  77 N13       30.53R WCI  -3
CHAMBERLAIN    CLOUDY    19  14  80 N12       30.48R WCI   7
MITCHELL       CLOUDY    15  10  80 N15       30.51R WCI   0
YANKTON        CLOUDY    18  10  73 NW15      30.48R WCI   3
$$

ABBREVIATIONS USED IN REMARKS
   TC - TEMPERATURE IN CELSIUS
  WCI - WIND CHILL INDEX
   HX - HEAT INDEX
  VSB - VISIBILITY





USA.gov is the U.S. government's official web portal to all federal, state and local government web resources and services.